Location: ????
(30.1475°N, 31.1342°E)
Time: 17:41:17
(UTC+00:00)

SL-24 R/B - RUBIN 2 - Visible Passes

Search period start: 21 March 2023 00:00
Search period end: 31 March 2023 00:00
Orbit: 592 x 1002 km, 64.6° (Epoch: 20 March)

Date Brightness Start Highest point End Pass type
(mag) Time Alt. Az. Time Alt. Az. Time Alt. Az.
21 Mar 4.5 16:23:58 10° NNW 16:29:51 87° WSW 16:36:16 10° SSE visible
22 Mar 7.1 17:41:13 10° WNW 17:44:17 14° WSW 17:47:27 10° SW visible
23 Mar 7.0 17:11:16 10° WNW 17:15:25 19° WSW 17:19:46 10° SSW visible
24 Mar 6.7 16:41:41 10° WNW 16:46:31 26° WSW 16:51:39 10° SSW visible
30 Mar 6.6 03:13:45 10° SE 03:15:52 14° ESE 03:18:02 10° ENE visible
